Flag for Germany Weather past 2 weeks in Warstein, North Rhine-Westphalia, Germany

Now
41 °F

Rain. Overcast.


Feels Like: 30 °F
Forecast: 33 / 37 °F
Wind: 30 mph from West

Location: Paderborn / Lippstadt

Current Time: Mar 31, 2015 at 9:22:01 AM

Latest Report: Mar 31, 2015 at 8:50 AM


Visibility: 1 mi

Pressure: 29.21 "Hg

Humidity: 93%

Dew point: 39 °F

Location of WarsteinLocation

Historic Weather in Warstein — Graph

°F

Warstein temperature yesterday

Maximum temperature yesterday: 43 °F (at 1:20 AM)
Minimum temperature yesterday: 36 °F (at 2:50 PM)
Average temperature yesterday: 40 °F

Past Weeks' High & Low Weather Summary

 TemperatureHumidityPressure
High59 °F (Mar 17, 3:20 PM)100% (Mar 16, 6:20 AM)30.36 "Hg (Mar 16, 6:20 AM)
Low28 °F (Mar 23, 2:50 AM)41% (Mar 25, 11:50 AM)29.15 "Hg (Mar 31, 7:20 AM)
Average42 °F80%29.97 "Hg
* Reported Mar 16 6:20 AM — Mar 31 7:50 AM, Warstein, Weather by CustomWeather, © 2015

Note: Actual official high and low records may vary slightly from our data, if they occured in-between our weather recording intervals... More about our weather records

Advertising

Warstein weather history for previous 24 hours

 ConditionsComfort  
Time TempWeatherWind HumidityBarometerVisibility
7:50 AM
Tue, Mar 31
48 °FLight rain. Overcast.26 mph87%29.18 "HgN/A
7:20 AM50 °FLight rain. Overcast.28 mph82%29.15 "HgN/A
6:50 AM50 °FLight rain. Overcast.29 mph82%29.18 "HgN/A
6:20 AM46 °FRain. Passing clouds.21 mph93%29.18 "Hg2 mi
5:50 AM43 °FRain. Passing clouds.20 mph93%29.21 "Hg5 mi
5:20 AM43 °FRain. Passing clouds.22 mph87%29.21 "HgN/A
4:50 AM41 °FRain. Passing clouds.16 mph93%29.27 "HgN/A
4:20 AM39 °FRain. Passing clouds.14 mph87%29.33 "HgN/A
3:50 AM37 °FRain. Passing clouds.17 mph87%29.36 "HgN/A
3:20 AM36 °FRain. Passing clouds.16 mph93%29.45 "HgN/A
2:50 AM36 °FLight rain. Passing clouds.13 mph93%29.50 "HgN/A
2:20 AM36 °FLight rain. Passing clouds.13 mph93%29.53 "HgN/A
1:20 AM39 °FClear.16 mph65%29.62 "Hg10 mi
12:50 AM39 °FClear.15 mph61%29.65 "Hg10 mi
12:20 AM39 °FClear.14 mph61%29.68 "Hg10 mi
11:50 PM
Mon, Mar 30
37 °FClear.12 mph65%29.71 "Hg10 mi
11:20 PM37 °FClear.10 mph65%29.74 "Hg10 mi
10:50 PM36 °FClear.9 mph70%29.77 "Hg10 mi
10:20 PM36 °FClear.12 mph70%29.77 "Hg10 mi
9:50 PM37 °FClear.10 mph65%29.77 "Hg10 mi
9:20 PM39 °FPassing clouds.10 mph61%29.80 "HgN/A
8:50 PM39 °FPassing clouds.12 mph61%29.80 "HgN/A
8:20 PM41 °FPassing clouds.10 mph61%29.80 "HgN/A
7:50 PM41 °FPassing clouds.12 mph61%29.77 "HgN/A
7:20 PM41 °FPassing clouds.13 mph57%29.77 "HgN/A
6:50 PM41 °FScattered showers. Scattered clouds.16 mph57%29.77 "HgN/A
6:20 PM43 °FScattered clouds.14 mph53%29.74 "HgN/A
5:50 PM39 °FRain showers. Scattered clouds.17 mph70%29.74 "HgN/A
5:20 PM43 °FSprinkles. Scattered clouds.17 mph57%29.71 "HgN/A
4:50 PM41 °FSprinkles. Scattered clouds.17 mph66%29.68 "HgN/A
4:20 PM39 °FSprinkles. Scattered clouds.13 mph81%29.68 "HgN/A
4:02 PM37 °FSprinkles. Scattered clouds.12 mph87%29.68 "HgN/A
3:20 PM39 °FBroken clouds.13 mph81%29.65 "HgN/A
2:50 PM36 °FRain showers. Broken clouds.16 mph87%29.65 "Hg4 mi
2:20 PM39 °FBroken clouds.10 mph87%29.62 "HgN/A
1:50 PM37 °FRain. Broken clouds.22 mph87%29.62 "HgN/A
1:20 PM39 °FPartly sunny.15 mph81%29.59 "HgN/A
12:50 PM43 °FSprinkles. Partly sunny.18 mph57%29.56 "HgN/A
12:20 PM43 °FScattered clouds.18 mph61%29.56 "HgN/A
11:50 AM41 °FScattered clouds.17 mph70%29.53 "HgN/A
11:20 AM41 °FSprinkles. Broken clouds.17 mph66%29.53 "HgN/A
10:50 AM41 °FLight rain. Partly sunny.17 mph66%29.50 "HgN/A
10:20 AM41 °FScattered clouds.20 mph66%29.47 "HgN/A
9:50 AM41 °FScattered showers. Scattered clouds.17 mph66%29.45 "HgN/A
9:20 AM41 °FScattered clouds.18 mph66%29.45 "HgN/A
Weather by CustomWeather, © 2015

See weather overviewHow to use our weather pages